• Em Portugal
  • Lista de países
  • Para 7 dias
  • Temperatura da água
  • Mapas de satélite
  • Mapa do tempo
  • Widgets de tempo
  • user-avatar
    Iniciar Sessão

    Previsão horária em Pstraze

    Hoje, 23 Outubro, Terça-feira

    Tempo Temperatura Precipitação Vento Pressão Humidade
    00:00 +5°C° 0 mm 3 m/s 757 mmHg 87%
    01:00 +4°C° 0 mm 2 m/s 756 mmHg 90%
    02:00 +4°C° 0 mm 3 m/s 756 mmHg 89%
    03:00 +4°C° 0 mm 3 m/s 755 mmHg 88%
    04:00 +4°C° 0 mm 4 m/s 754 mmHg 86%
    05:00 +3°C° 0 mm 5 m/s 753 mmHg 84%
    06:00 +5°C° 0 mm 5 m/s 753 mmHg 81%
    07:00 +4°C° 0 mm 6 m/s 752 mmHg 78%
    08:00 +5°C° 0.1 mm 7 m/s 751 mmHg 75%
    09:00 +6°C° 0.1 mm 8 m/s 750 mmHg 72%
    10:00 +6°C° 0.1 mm 9 m/s 749 mmHg 69%
    11:00 +6°C° 0.8 mm 9 m/s 748 mmHg 72%
    12:00 +6°C° 0.8 mm 9 m/s 747 mmHg 75%
    13:00 +6°C° 0.8 mm 10 m/s 746 mmHg 78%
    14:00 +7°C° 0.3 mm 10 m/s 745 mmHg 79%
    15:00 +8°C° 0.3 mm 10 m/s 744 mmHg 80%
    16:00 +8°C° 0.3 mm 10 m/s 743 mmHg 81%
    17:00 +9°C° 0.8 mm 10 m/s 743 mmHg 82%
    18:00 +9°C° 0.8 mm 10 m/s 742 mmHg 82%
    19:00 +11°C° 0.8 mm 10 m/s 741 mmHg 83%
    20:00 +11°C° 1 mm 10 m/s 741 mmHg 83%
    21:00 +11°C° 1 mm 10 m/s 741 mmHg 83%
    22:00 +11°C° 1 mm 10 m/s 741 mmHg 83%
    23:00 +11°C° 1.2 mm 10 m/s 740 mmHg 81%

    Amanhã, 24 Outubro, Quarta-feira

    Tempo Temperatura Precipitação Vento Pressão Humidade
    00:00 +9°C° 1.2 mm 10 m/s 740 mmHg 80%
    01:00 +9°C° 1.2 mm 10 m/s 740 mmHg 79%
    02:00 +9°C° 0.3 mm 10 m/s 740 mmHg 77%
    03:00 +8°C° 0.3 mm 9 m/s 740 mmHg 75%
    04:00 +7°C° 0.3 mm 9 m/s 741 mmHg 73%
    05:00 +6°C° 0.2 mm 9 m/s 741 mmHg 72%
    06:00 +6°C° 0.2 mm 8 m/s 742 mmHg 72%
    07:00 +5°C° 0.2 mm 8 m/s 743 mmHg 72%
    08:00 +6°C° 0.1 mm 8 m/s 743 mmHg 67%
    09:00 +6°C° 0.1 mm 8 m/s 744 mmHg 63%
    10:00 +6°C° 0.1 mm 9 m/s 745 mmHg 59%
    11:00 +7°C° 0 mm 8 m/s 745 mmHg 56%
    12:00 +7°C° 0 mm 8 m/s 746 mmHg 54%
    13:00 +7°C° 0 mm 8 m/s 746 mmHg 51%
    14:00 +8°C° 0 mm 7 m/s 746 mmHg 52%
    15:00 +8°C° 0 mm 6 m/s 747 mmHg 53%
    16:00 +8°C° 0 mm 6 m/s 747 mmHg 54%
    17:00 +7°C° 0 mm 5 m/s 748 mmHg 57%
    18:00 +6°C° 0 mm 5 m/s 748 mmHg 60%
    19:00 +6°C° 0 mm 5 m/s 749 mmHg 63%
    20:00 +5°C° 0 mm 4 m/s 749 mmHg 66%
    21:00 +5°C° 0 mm 4 m/s 749 mmHg 68%
    22:00 +4°C° 0 mm 4 m/s 749 mmHg 71%
    23:00 +4°C° 0 mm 4 m/s 749 mmHg 74%

    Depois de amanhã, 25 Outubro, Quinta-feira

    Tempo Temperatura Precipitação Vento Pressão Humidade
    00:00 +5°C° 0 mm 4 m/s 749 mmHg 76%
    01:00 +5°C° 0 mm 4 m/s 748 mmHg 79%
    02:00 +5°C° 0.4 mm 4 m/s 748 mmHg 82%
    03:00 +6°C° 0.4 mm 5 m/s 747 mmHg 86%
    04:00 +7°C° 0.4 mm 5 m/s 746 mmHg 89%
    05:00 +8°C° 0.4 mm 6 m/s 746 mmHg 88%
    06:00 +9°C° 0.4 mm 7 m/s 745 mmHg 87%
    07:00 +10°C° 0.4 mm 8 m/s 745 mmHg 86%
    08:00 +10°C° 0.2 mm 8 m/s 745 mmHg 85%
    09:00 +10°C° 0.2 mm 8 m/s 745 mmHg 84%
    10:00 +10°C° 0.2 mm 8 m/s 744 mmHg 84%
    11:00 +10°C° 0.1 mm 8 m/s 744 mmHg 82%
    12:00 +11°C° 0.1 mm 8 m/s 744 mmHg 81%
    13:00 +11°C° 0.1 mm 8 m/s 744 mmHg 80%
    14:00 +11°C° 0 mm 8 m/s 744 mmHg 79%
    15:00 +11°C° 0 mm 8 m/s 744 mmHg 79%
    16:00 +11°C° 0 mm 8 m/s 744 mmHg 78%
    17:00 +11°C° 0.1 mm 7 m/s 744 mmHg 79%
    18:00 +10°C° 0.1 mm 7 m/s 744 mmHg 81%
    19:00 +10°C° 0.1 mm 6 m/s 745 mmHg 82%
    20:00 +10°C° 0.2 mm 6 m/s 745 mmHg 82%
    21:00 +9°C° 0.2 mm 6 m/s 745 mmHg 82%
    22:00 +9°C° 0.2 mm 5 m/s 745 mmHg 82%
    23:00 +8°C° 0.1 mm 5 m/s 745 mmHg 83%

    26 Outubro, Sexta-feira

    Tempo Temperatura Precipitação Vento Pressão Humidade
    00:00 +8°C° 0.1 mm 4 m/s 746 mmHg 84%
    01:00 +7°C° 0.1 mm 4 m/s 746 mmHg 85%
    02:00 +8°C° 0.1 mm 3 m/s 745 mmHg 86%
    03:00 +8°C° 0.1 mm 3 m/s 745 mmHg 87%
    04:00 +9°C° 0.1 mm 3 m/s 745 mmHg 87%
    05:00 +8°C° 0 mm 3 m/s 745 mmHg 89%
    06:00 +8°C° 0 mm 3 m/s 745 mmHg 90%
    07:00 +8°C° 0 mm 3 m/s 745 mmHg 92%
    08:00 +9°C° 0 mm 3 m/s 744 mmHg 87%
    09:00 +10°C° 0 mm 3 m/s 744 mmHg 83%
    10:00 +11°C° 0 mm 4 m/s 744 mmHg 79%
    11:00 +12°C° 0 mm 4 m/s 744 mmHg 75%
    12:00 +13°C° 0 mm 4 m/s 743 mmHg 71%
    13:00 +14°C° 0 mm 5 m/s 743 mmHg 66%
    14:00 +13°C° 0 mm 4 m/s 742 mmHg 68%
    15:00 +13°C° 0 mm 4 m/s 742 mmHg 69%
    16:00 +12°C° 0 mm 3 m/s 741 mmHg 71%
    17:00 +11°C° 0 mm 4 m/s 741 mmHg 72%
    18:00 +10°C° 0 mm 4 m/s 741 mmHg 73%
    19:00 +10°C° 0 mm 4 m/s 741 mmHg 75%
    20:00 +8°C° 0 mm 4 m/s 741 mmHg 75%
    21:00 +8°C° 0 mm 4 m/s 741 mmHg 76%
    22:00 +8°C° 0 mm 4 m/s 741 mmHg 76%
    23:00 +7°C° 0 mm 4 m/s 740 mmHg 77%

    27 Outubro, Sábado

    Tempo Temperatura Precipitação Vento Pressão Humidade
    00:00 +7°C° 0 mm 4 m/s 740 mmHg 78%
    01:00 +7°C° 0 mm 4 m/s 740 mmHg 78%
    02:00 +7°C° 0.1 mm 4 m/s 740 mmHg 79%
    03:00 +7°C° 0.1 mm 4 m/s 740 mmHg 80%
    04:00 +7°C° 0.1 mm 5 m/s 740 mmHg 81%
    05:00 +7°C° 0.1 mm 5 m/s 740 mmHg 80%
    06:00 +7°C° 0.1 mm 5 m/s 740 mmHg 80%
    07:00 +6°C° 0.1 mm 4 m/s 740 mmHg 80%
    08:00 +7°C° 0 mm 5 m/s 741 mmHg 76%
    09:00 +7°C° 0 mm 5 m/s 741 mmHg 71%
    10:00 +7°C° 0 mm 5 m/s 742 mmHg 67%
    11:00 +8°C° 0 mm 5 m/s 742 mmHg 64%
    12:00 +8°C° 0 mm 4 m/s 742 mmHg 61%
    13:00 +8°C° 0 mm 4 m/s 742 mmHg 58%
    14:00 +9°C° 0 mm 3 m/s 742 mmHg 60%
    15:00 +9°C° 0 mm 3 m/s 742 mmHg 61%
    16:00 +8°C° 0 mm 2 m/s 742 mmHg 63%
    17:00 +8°C° 0 mm 2 m/s 743 mmHg 65%
    18:00 +8°C° 0 mm 1 m/s 743 mmHg 68%
    19:00 +7°C° 0 mm 1 m/s 743 mmHg 71%
    20:00 +7°C° 0 mm 1 m/s 743 mmHg 72%
    21:00 +7°C° 0 mm 1 m/s 744 mmHg 73%
    22:00 +7°C° 0 mm 1 m/s 744 mmHg 73%
    23:00 +7°C° 0 mm 1 m/s 744 mmHg 74%

    28 Outubro, Domingo

    Tempo Temperatura Precipitação Vento Pressão Humidade
    00:00 +6°C° 0 mm 1 m/s 744 mmHg 75%
    01:00 +6°C° 0 mm 1 m/s 744 mmHg 76%
    02:00 +6°C° 0 mm 1 m/s 744 mmHg 78%
    03:00 +6°C° 0 mm 1 m/s 744 mmHg 79%
    04:00 +5°C° 0 mm 2 m/s 743 mmHg 80%
    05:00 +5°C° 0.1 mm 2 m/s 743 mmHg 82%
    06:00 +4°C° 0.1 mm 2 m/s 743 mmHg 83%
    07:00 +4°C° 0.1 mm 2 m/s 743 mmHg 84%
    08:00 +5°C° 0.1 mm 2 m/s 743 mmHg 83%
    09:00 +4°C° 0.1 mm 3 m/s 743 mmHg 82%
    10:00 +4°C° 0.1 mm 3 m/s 743 mmHg 81%
    11:00 +5°C° 0.2 mm 3 m/s 743 mmHg 79%
    12:00 +5°C° 0.2 mm 4 m/s 743 mmHg 78%
    13:00 +5°C° 0.2 mm 4 m/s 743 mmHg 76%
    14:00 +5°C° 0.7 mm 4 m/s 743 mmHg 78%
    15:00 +5°C° 0.7 mm 4 m/s 742 mmHg 80%
    16:00 +4°C° 0.7 mm 4 m/s 742 mmHg 82%
    17:00 +4°C° 0.4 mm 4 m/s 742 mmHg 83%
    18:00 +3°C° 0.4 mm 5 m/s 742 mmHg 83%
    19:00 +3°C° 0.4 mm 5 m/s 742 mmHg 84%
    20:00 +3°C° 0.5 mm 6 m/s 741 mmHg 85%
    21:00 +2°C° 0.5 mm 6 m/s 741 mmHg 85%
    22:00 +2°C° 0.5 mm 6 m/s 741 mmHg 85%
    23:00 +2°C° 1.1 mm 6 m/s 740 mmHg 85%

    29 Outubro, Segunda-feira

    Tempo Temperatura Precipitação Vento Pressão Humidade
    00:00 +2°C° 1.1 mm 7 m/s 740 mmHg 86%
    01:00 +2°C° 1.1 mm 7 m/s 739 mmHg 86%
    02:00 +1°C° 0.8 mm 6 m/s 739 mmHg 86%
    03:00 +1°C° 0.8 mm 6 m/s 738 mmHg 87%
    04:00 +1°C° 0.8 mm 6 m/s 738 mmHg 87%
    05:00 -1°C° 0.4 mm 6 m/s 737 mmHg 88%
    06:00 -1°C° 0.4 mm 6 m/s 737 mmHg 89%
    07:00 -1°C° 0.4 mm 6 m/s 736 mmHg 90%
    08:00 0°C° 0.6 mm 5 m/s 736 mmHg 90%
    09:00 0°C° 0.6 mm 5 m/s 736 mmHg 91%
    10:00 0°C° 0.6 mm 5 m/s 735 mmHg 91%
    11:00 0°C° 0.7 mm 4 m/s 735 mmHg 92%
    12:00 0°C° 0.7 mm 4 m/s 735 mmHg 93%
    13:00 0°C° 0.7 mm 4 m/s 734 mmHg 94%
    14:00 +1°C° 0.1 mm 3 m/s 734 mmHg 94%
    15:00 +1°C° 0.1 mm 3 m/s 734 mmHg 94%
    16:00 +1°C° 0.1 mm 3 m/s 734 mmHg 95%
    17:00 +2°C° 0.1 mm 2 m/s 734 mmHg 95%
    18:00 +2°C° 0.1 mm 2 m/s 733 mmHg 96%
    19:00 +2°C° 0.1 mm 2 m/s 733 mmHg 96%
    20:00 +2°C° 0.4 mm 2 m/s 733 mmHg 96%
    21:00 +2°C° 0.4 mm 2 m/s 733 mmHg 96%
    22:00 +2°C° 0.4 mm 2 m/s 733 mmHg 97%
    23:00 +2°C° 0.8 mm 2 m/s 733 mmHg 97%
    Mostrar mais